Location: Caltech
(34.1382°N, 118.1253°W)
Time: 16:46:46
(UTC-07:00)

Cosmos 1484 Rocket - Visible Passes

Search period start: 30 September 2016 00:00
Search period end: 10 October 2016 00:00
Orbit: 509 x 562 km, 97.4° (Epoch: 30 September)

Date Brightness Start Highest point End Pass type
(mag) Time Alt. Az. Time Alt. Az. Time Alt. Az.
30 Sep 4.7 19:40:25 10° SSW 19:43:53 32° W 19:47:25 10° NNW visible
01 Oct 4.1 19:31:34 10° S 19:35:13 42° W 19:38:58 10° NNW visible
02 Oct 3.5 19:22:48 10° S 19:26:34 56° W 19:30:26 10° NNW visible
03 Oct 3.0 19:14:05 10° S 19:17:56 75° WSW 19:21:52 10° NNW visible
04 Oct 2.7 19:05:27 10° SSE 19:09:17 83° E 19:13:15 10° N visible
05 Oct 2.8 18:56:51 10° SSE 19:00:40 63° ENE 19:04:35 10° N visible
06 Oct 3.0 18:48:19 10° SSE 18:52:04 47° ENE 18:55:53 10° N visible
07 Oct 6.2 20:16:27 10° WSW 20:18:03 12° W 20:19:40 10° WNW visible
08 Oct 6.0 20:06:56 10° SW 20:09:20 16° W 20:11:47 10° NW visible
09 Oct 5.6 19:57:43 10° SW 20:00:38 20° W 20:03:36 10° NW visible
